Location: Lahas
(43.5538°N, 0.8906°E)
Time: 21:31:41
(UTC+00:00)

DELTA 2 R/B (1) - Pass Details

Date: 15 May 2026
Orbit: 787 x 800 km, 39.6° (Epoch: 10 June)

Event Time Altitude Azimuth Distance (km) Brightness Sun altitude
Rises 20:42:07 0° 266° (W) 3,290 7.4 -13.7°
Reaches altitude 10° 20:44:38 10° 262° (W) 2,358 6.6 -14.0°
Maximum altitude 20:50:04 57° 185° (S) 927 3.7 -14.7°
Enters shadow 20:53:41 21° 113° (ESE) 1,711 4.8 -15.2°
